Tracking 29528 objects as of 14-Sep-2024
HD Live streaming from Space Station
objects crossing your sky now

FENGYUN 1C DEB

Track FENGYUN 1C DEB now!
10-day predictions


NORAD ID: 30371
Int'l Code: 1999-025ACJ
Perigee: 805.1 km
Apogee: 817.3 km
Inclination: 98.6 °
Period: 101.0 minutes
Semi major axis: 7182 km
RCS: 0.046 m2 (small)
Launch date: May 10, 1999
Source: People's Republic of China (PRC)
Launch site: Taiyaun Space Center, China (TSC)

Note: This is SATELLITE DEBRIS
Your satellite tracking list
Your tracking list is empty




NASA's NSSDC Master Catalog

Two Line Element Set (TLE):
1 30371U 99025ACJ 24257.07263642  .00010806  00000-0  45108-2 0  9994
2 30371  98.6202 300.7309 0008460 221.4599 168.4756 14.26316784914110
Source of the keplerian elements: AFSPC